Location: Fuglau
(48.6333°N, 15.5500°E)
Time: 05:31:07
(UTC+00:00)

STARLINK-72 - Pass Details

Date: 27 February 2020
Orbit: 529 x 530 km, 53.0° (Epoch: 09 April)

Event Time Altitude Azimuth Distance (km) Brightness Sun altitude
Rises 17:51:35 0° 279° (W) 2,671 9.1 -13.0°
Reaches altitude 10° 17:53:53 10° 286° (WNW) 1,781 7.6 -13.4°
Maximum altitude 17:57:45 43° 360° (N) 750 4.3 -14.0°
Enters shadow 18:00:05 21° 62° (ENE) 1,226 4.9 -14.4°
